Back to catalog

COSMOS 2353

AliveMilitaryPO
NORAD 25364·PAYLOAD·🇷🇺 Russia

Launched Jun 15, 1998 from Plesetsk Cosmodrome

Loading…

Next Passes (next 24 hours)

TLE

FreshSource: Space-Track

Epoch: Sep 14, 2026, 12:54 UTC

1 25364U 98036B   26257.53772966  .00000011  00000-0  15746-4 0  9992
2 25364  82.5859 288.2973 0355959   4.7390 355.6903 12.21843283259941

Track COSMOS 2353 in real time with AllMySat

Download on the App Store